Location: *
(28.3744°N, 81.5492°W)
Time: 03:29:41
(UTC+00:00)

ARGOS - Pass Details

Date: 15 June 2025
Orbit: 819 x 832 km, 98.5° (Epoch: 11 July)

Event Time Altitude Azimuth Distance (km) Brightness Sun altitude
Rises 09:06:39 0° 19° (NNE) 3,366 7.3 -16.0°
Reaches altitude 10° 09:09:05 10° 25° (NNE) 2,432 6.6 -15.6°
Maximum altitude 09:14:19 50° 100° (E) 1,041 4.0 -14.7°
Drops below altitude 10° 09:19:31 10° 176° (S) 2,427 5.3 -13.8°
Enters shadow 09:21:36 - 180° (S) 3,227 5.9 -13.4°
